Terminal Aerodrome Forecast
Issued by NWS Billings, MT

Home | Current Version | Previous Version | Text Only | Print | Product List | Glossary On
Versions: 1 2 3 4 5 6 7 8 9 10 11 12 13 14
000
FTUS45 KBYZ 242323
TAFSHR
TAF
KSHR 242323Z 2500/2524 VRB05KT P6SM VCSH SCT080 BKN100
     FM250300 VRB04KT P6SM SCT080 BKN110
     FM251700 12008KT P6SM VCSH BKN070 BKN100=

USA.gov is the U.S. government's official web portal to all federal, state and local government web resources and services.